[[{"header":{"parameterUnit":"m.s-1","parameterCategory":2,"la1":30.2991,"la2":30.254,"lo1":-89.0895,"lo2":-89.0444,"dy":0.0017,"dx":0.0017,"nx":28,"ny":28,"refTime":"2024-05-24T21:00:00:Z","depth":"0","parameterNumber":2,"parameterNumberName":"U-component_of_CURRENTS"},"data":[0,0,0,0,0,0,0,0,0,0,0,0,0,0,0,0,0,0,0,0,0,0,0,0,0,0,0,0,0,0,0,0,0,0,0,0,0,0,0,0,0,0,0,0,0,0,0,0,0,0,0,0,0,0,0,0,0,0,0.1624,0.1624,0,0.1653,0.1653,0.1653,0.1655,0.1655,0.1655,0.1655,0.1652,0.1652,0.1652,0,0,0,0,0,0,0,0,0,0,0,0,0,0.1557,0.1559,0.1623,0.1624,0.1625,0.1653,0.1653,0.1653,0.1655,0.1655,0.1655,0.1655,0.1652,0.1652,0.1652,0,0,0,0,0,0,0,0,0,0,0,0,0,0.1585,0.1559,0.1623,0.163,0.1631,0.1653,0.1653,0.1653,0.1655,0.1655,0.1655,0.1654,0.1652,0.1652,0.1652,0.1657,0,0,0.1652,0.1652,0,0,0,0,0,0,0,0,0.1583,0.1587,0.1629,0.163,0.1631,0.1652,0.1629,0.1654,0.1655,0.1644,0.1655,0.1654,0.165,0.165,0.1654,0.1657,0.1657,0.1652,0.1652,0.1652,0.1653,0,0,0,0,0,0,0,0.1581,0.1586,0.1633,0.1629,0.1631,0.1628,0.1632,0.1634,0.1646,0.1645,0.1646,0.1652,0.165,0.1654,0.1654,0.1657,0.1652,0.1652,0.1653,0.1653,0.1662,0.1662,0,0,0,0,0,0,0.1583,0.1584,0.1632,0.1634,0.1608,0.163,0.1634,0.1644,0.1647,0.1648,0.1652,0.1652,0.1654,0.1654,0.1654,0.1665,0.1652,0.1653,0.1653,0.1662,0.1662,0.1662,0,0,0,0,0,0,0.1581,0.1587,0.1631,0.1611,0.1617,0.1631,0.1643,0.1645,0.1652,0.1653,0.1653,0.1659,0.1654,0.1654,0.1658,0.1664,0.1653,0.1653,0.1661,0.1662,0.1662,0.1683,0,0,0,0,0,0,0.1579,0.1586,0.1594,0.1611,0.1618,0.1651,0.1643,0.1645,0.1657,0.1657,0.1658,0.1658,0.1654,0.1658,0.1659,0.1664,0.1653,0.1661,0.1661,0.1662,0.1682,0.1684,0.1685,0,0,0,0,0,0.1577,0.1592,0.1594,0.16,0.1628,0.1651,0.1655,0.1662,0.1658,0.1667,0.1663,0.1658,0.166,0.1659,0.1659,0.1665,0.1661,0.1661,0.1662,0.1681,0.1683,0.1685,0,0,0,0,0,0,0.1565,0.1594,0.1597,0.1619,0.1636,0.1653,0.1664,0.1666,0.1671,0.1669,0.1663,0.1662,0.1669,0.1663,0.1662,0.1667,0.1659,0.1659,0.1673,0.1676,0.1677,0.1689,0.1653,0,0,0,0,0,0.1567,0.1588,0.1609,0.1627,0.1637,0.1649,0.1659,0.1666,0.1673,0.1676,0.1675,0.1671,0.167,0.167,0.1671,0.1676,0.1758,0.1678,0.168,0.1681,0.169,0.1836,0.1853,0.1663,0.1663,0.1663,0,0,0.1567,0.1587,0.1597,0.1626,0.1639,0.1655,0.1654,0.1675,0.1682,0.1674,0.1682,0.168,0.1674,0.1679,0.1681,0.1675,0.1783,0.1682,0.1683,0.1692,0.1839,0.1858,0.1875,0.1663,0.1663,0.1663,0,0,0.158,0.1596,0.1616,0.1632,0.1657,0.1665,0.1671,0.169,0.1693,0.1703,0.1696,0.1697,0.1698,0.1694,0.1691,0.1702,0.179,0.1702,0.172,0.1861,0.1879,0.1896,0.2056,0.2087,0.1701,0.1701,0.1701,0,0.1577,0.1605,0.1625,0.1646,0.1656,0.1669,0.1683,0.1692,0.1707,0.1715,0.1708,0.1727,0.1704,0.1723,0.1713,0.1706,0.1824,0.1713,0.1869,0.1887,0.1904,0.2063,0.2097,0.1702,0.1702,0.1702,0.1702,0,0.1604,0.1623,0.1637,0.1664,0.1677,0.1696,0.1708,0.1721,0.1724,0.1734,0.176,0.1751,0.1776,0.1751,0.1727,0.1816,0.1876,0.1862,0.1872,0.1925,0.2089,0.2124,0.1704,0.1703,0.1703,0.1703,0,0,0.1605,0.1647,0.1651,0.1664,0.1687,0.1703,0.1716,0.1738,0.1769,0.1776,0.1837,0.1793,0.1821,0.182,0.1811,0.1887,0.2085,0.1924,0.1931,0.2099,0.2455,0.2453,0.2491,0.2129,0.2134,0.2138,0.2534,0,0.1618,0.1654,0.167,0.1695,0.1711,0.1724,0.1741,0.1761,0.179,0.1856,0.1861,0.1917,0.1844,0.1886,0.195,0.2063,0.2175,0.1981,0.2363,0.2375,0.238,0.2529,0.2466,0.2809,0.2568,0.2574,0.2578,0,0.1639,0.1659,0.1684,0.1716,0.1725,0.174,0.1784,0.1809,0.1886,0.1922,0.1986,0.2033,0.2134,0.208,0.2328,0.2231,0.2348,0.242,0.2438,0.245,0.2437,0.2709,0.2882,0.2773,0.2633,0.2628,0.2625,0,0.1631,0.167,0.1689,0.1698,0.1735,0.1748,0.1772,0.1826,0.1883,0.2007,0.2105,0.221,0.2341,0.2476,0.2601,0.2523,0.2907,0.283,0.294,0.2943,0.2966,0.2961,0.3086,0.3037,0.3036,0.3035,0.3034,0,0.1639,0.1652,0.169,0.1699,0.1729,0.1758,0.1824,0.1855,0.198,0.2094,0.2168,0.2322,0.2458,0.2667,0.2735,0.2979,0.3047,0.3,0.306,0.297,0.2961,0.2922,0.2829,0.305,0.3046,0.3044,0.3041,0,0.1627,0.165,0.1671,0.1709,0.1725,0.175,0.1854,0.1929,0.2039,0.2219,0.2291,0.251,0.2794,0.292,0.3194,0.3197,0.3304,0.3436,0.3323,0.3359,0.3291,0.3202,0.3294,0.3197,0.3653,0.3656,0.3658,0,0.1624,0.1637,0.1673,0.1706,0.1723,0.1784,0.1844,0.1938,0.2047,0.2333,0.2447,0.2768,0.2967,0.3365,0.3476,0.3679,0.3477,0.3697,0.3481,0.3331,0.3278,0.3069,0.2961,0.3556,0.3557,0.3558,0.3559,0,0.1633,0.1645,0.1679,0.1735,0.1789,0.1852,0.1954,0.2042,0.221,0.2376,0.2652,0.2836,0.3227,0.3424,0.3668,0.3747,0.35,0.3719,0.3617,0.3265,0.3001,0.2921,0.3255,0.3567,0.3566,0.3565,0.3565,0.3565,0.1663,0.1688,0.1756,0.18,0.1858,0.1939,0.1987,0.2135,0.2302,0.2539,0.274,0.2984,0.3283,0.3627,0.3677,0.3712,0.3608,0.3614,0.3551,0.3378,0.3156,0.3501,0.3813,0.3813,0.3814,0.3814,0.3815,0,0.1743,0.1785,0.1832,0.1894,0.1948,0.1965,0.2085,0.2139,0.2309,0.2539,0.2749,0.3092,0.3297,0.3471,0.364,0.3553,0.3339,0.3455,0.3141,0.3065,0.3476,0.3335,0.349,0.349,0.349,0.3491,0.3491,0.3491,0.1812,0.1888,0.1896,0.1983,0.2011,0.2065,0.2111,0.2181,0.2311,0.2537,0.2726,0.292,0.3215,0.344,0.3428,0.3351,0.3049,0.2971,0.2882,0.3153,0.316,0.3166,0.3012,0.3097,0.3097,0.2368,0.2362,0.2358]},{"header":{"parameterUnit":"m.s-1","parameterCategory":2,"la1":30.2991,"la2":30.254,"lo1":-89.0895,"lo2":-89.0444,"dy":0.0017,"dx":0.0017,"nx":28,"ny":28,"refTime":"2024-05-24T21:00:00:Z","depth":"0","parameterNumber":3,"parameterNumberName":"V-component_of_CURRENTS"},"data":[0,0,0,0,0,0,0,0,0,0,0,0,0,0,0,0,0,0,0,0,0,0,0,0,0,0,0,0,0,0,0,0,0,0,0,0,0,0,0,0,0,0,0,0,0,0,0,0,0,0,0,0,0,0,0,0,0,0,-0.0014,-0.0014,0,-0.0095,-0.0096,-0.0097,-0.0127,-0.0127,-0.0127,-0.0126,-0.0225,-0.0227,-0.023,0,0,0,0,0,0,0,0,0,0,0,0,0,0.0074,0.0073,-0.0014,-0.0015,-0.0015,-0.0095,-0.0096,-0.0097,-0.0127,-0.0127,-0.0127,-0.0126,-0.0224,-0.0227,-0.0231,0,0,0,0,0,0,0,0,0,0,0,0,0,0.0019,0.0073,-0.0013,-0.004,-0.0043,-0.0094,-0.0096,-0.0097,-0.0127,-0.0127,-0.0127,-0.0126,-0.0223,-0.0227,-0.0231,-0.0267,0,0,-0.0244,-0.0246,0,0,0,0,0,0,0,0,0.0022,0.0015,-0.0035,-0.0038,-0.0042,-0.01,-0.0101,-0.0155,-0.0128,-0.0096,-0.0126,-0.0126,-0.0185,-0.0192,-0.0209,-0.0271,-0.0276,-0.0245,-0.0247,-0.0249,-0.025,0,0,0,0,0,0,0,0.0026,0.0018,-0.0046,-0.0036,-0.004,-0.0062,-0.0069,-0.0111,-0.0142,-0.0099,-0.0101,-0.0109,-0.0187,-0.0204,-0.0211,-0.0277,-0.0245,-0.0248,-0.0251,-0.0253,-0.039,-0.0391,0,0,0,0,0,0,0.0038,0.0022,-0.0044,-0.0049,-0.0008,-0.0063,-0.0071,-0.0082,-0.0142,-0.015,-0.011,-0.011,-0.0197,-0.0206,-0.0215,-0.0273,-0.0249,-0.0253,-0.0256,-0.0389,-0.0391,-0.0392,0,0,0,0,0,0,0.004,0.0033,-0.004,-0.0014,-0.0025,-0.0065,-0.0077,-0.0084,-0.0103,-0.015,-0.0158,-0.0121,-0.0197,-0.0209,-0.026,-0.0277,-0.0255,-0.0259,-0.0388,-0.039,-0.0391,-0.0383,0,0,0,0,0,0,0.0043,0.0034,0.0028,-0.0014,-0.0026,-0.0074,-0.0078,-0.0086,-0.0108,-0.011,-0.0163,-0.0171,-0.0198,-0.0254,-0.0264,-0.0282,-0.0263,-0.0387,-0.0389,-0.0391,-0.0382,-0.0384,-0.0385,0,0,0,0,0,0.0047,0.0033,0.0028,0.002,-0.0032,-0.0075,-0.0084,-0.0111,-0.0109,-0.0124,-0.0159,-0.0169,-0.0273,-0.0258,-0.0271,-0.029,-0.0386,-0.0388,-0.039,-0.0381,-0.0383,-0.0385,0,0,0,0,0,0,0.0064,0.0027,0.0022,-0.0003,-0.0035,-0.008,-0.0098,-0.0111,-0.015,-0.0151,-0.0187,-0.02,-0.0249,-0.0274,-0.0256,-0.0336,-0.033,-0.0335,-0.0318,-0.0321,-0.0323,-0.0277,-0.0266,0,0,0,0,0,0.0067,0.0048,0.0012,-0.0009,-0.0023,-0.0058,-0.0078,-0.0096,-0.0134,-0.015,-0.0186,-0.0227,-0.027,-0.0297,-0.0337,-0.0386,-0.0341,-0.0406,-0.0408,-0.0409,-0.0381,-0.0324,-0.0317,-0.0399,-0.0399,-0.0399,0,0,0.0068,0.0045,0.0035,-0.0006,-0.0032,-0.006,-0.0069,-0.0102,-0.0126,-0.0156,-0.0201,-0.0235,-0.0284,-0.0336,-0.036,-0.0358,-0.0365,-0.0412,-0.0413,-0.0383,-0.0326,-0.0317,-0.0309,-0.0401,-0.0401,-0.04,0,0,0.0057,0.0041,0.0022,-0.0003,-0.0041,-0.0064,-0.0071,-0.0115,-0.0135,-0.0183,-0.0209,-0.0245,-0.0319,-0.035,-0.0377,-0.0414,-0.0375,-0.0437,-0.0414,-0.036,-0.0351,-0.0343,-0.0276,-0.0262,-0.044,-0.044,-0.044,0,0.006,0.0034,0.0008,-0.0017,-0.0032,-0.0063,-0.0083,-0.0117,-0.0172,-0.0174,-0.0195,-0.026,-0.032,-0.0352,-0.0381,-0.0416,-0.0365,-0.0401,-0.0357,-0.0349,-0.034,-0.0273,-0.0257,-0.044,-0.044,-0.044,-0.044,0,0.0034,0.0016,0.0002,-0.0034,-0.0057,-0.0081,-0.012,-0.0141,-0.0162,-0.0179,-0.0204,-0.0267,-0.0283,-0.0335,-0.0381,-0.0366,-0.0341,-0.036,-0.034,-0.033,-0.0262,-0.0245,-0.044,-0.044,-0.044,-0.044,0,0,0.0037,-0.0006,-0.001,-0.0011,-0.0062,-0.0075,-0.0114,-0.0135,-0.0102,-0.0174,-0.0121,-0.025,-0.0235,-0.0263,-0.031,-0.0302,-0.0236,-0.031,-0.0307,-0.022,-0.0085,-0.0128,-0.0114,-0.0234,-0.0231,-0.0229,-0.006,0,0.0028,0.0003,-0.0027,-0.0043,-0.0051,-0.0079,-0.0088,-0.0107,-0.0108,-0.0064,-0.0119,-0.0091,-0.0221,-0.019,-0.0214,-0.0203,-0.0191,-0.0278,-0.0126,-0.0121,-0.0141,-0.0097,-0.0131,0.0012,-0.0043,-0.0041,-0.0039,0,0.0017,0.0006,-0.0006,-0.0001,-0.0004,-0.001,0.0024,0.0014,0.0049,0.0067,0.0077,0.0076,0.0072,-0.0013,-0.0002,-0.004,-0.0064,-0.0078,-0.0071,-0.0094,-0.0133,-0.001,0.0044,-0.018,-0.0013,-0.0015,-0.0017,0,0.0059,0.0028,0.0032,0.0023,0.0015,0.0028,0.004,0.0067,0.0134,0.0198,0.0309,0.0266,0.0349,0.0279,0.0203,0.0137,0.0256,0.017,0.0105,0.0103,0.0112,0.0106,-0.001,0.0193,0.0193,0.0192,0.0192,0,0.0074,0.0081,0.0066,0.0071,0.0124,0.0101,0.0206,0.0208,0.0324,0.0483,0.0415,0.0572,0.0437,0.0472,0.0329,0.029,0.0361,0.0144,0.0151,0.0109,0.0101,-0.0064,-0.0166,0.0199,0.0197,0.0196,0.0195,0,0.0132,0.0105,0.0127,0.0133,0.0147,0.0202,0.033,0.0448,0.052,0.0749,0.0804,0.0874,0.0914,0.0755,0.0706,0.0518,0.0334,0.0396,0.0354,0.035,0.0019,-0.008,-0.0085,-0.0168,0.0362,0.0362,0.0362,0,0.0164,0.018,0.0198,0.0262,0.0276,0.037,0.0478,0.054,0.07,0.0959,0.111,0.1213,0.1312,0.1188,0.0876,0.0648,0.0421,0.0445,0.0264,0.0021,-0.0081,-0.0149,-0.0225,0.0294,0.0294,0.0294,0.0293,0,0.027,0.0275,0.0312,0.0434,0.0535,0.0655,0.0812,0.0959,0.1115,0.1315,0.1608,0.1709,0.1574,0.1345,0.0977,0.0767,0.0282,0.0427,0.0203,-0.0117,-0.0215,-0.0298,0.0165,0.0289,0.029,0.029,0.029,0.029,0.0394,0.0466,0.0554,0.0664,0.0785,0.0982,0.1123,0.1325,0.159,0.1909,0.1967,0.2138,0.1706,0.1201,0.0899,0.0256,0.0288,0.0018,-0.0061,-0.0093,-0.0249,0.0198,0.0291,0.0291,0.0291,0.0292,0.0292,0,0.0616,0.07,0.0812,0.0972,0.1143,0.1143,0.1396,0.1563,0.189,0.2132,0.2349,0.2207,0.1681,0.1099,0.0253,-0.0173,-0.0334,-0.0413,-0.0542,-0.0584,-0.0156,-0.0246,-0.03,-0.0299,-0.0299,-0.0299,-0.0299,-0.0299,0.0771,0.0943,0.098,0.1287,0.1394,0.1628,0.1766,0.1982,0.2163,0.2448,0.252,0.2537,0.2018,0.056,-0.045,-0.0676,-0.0944,-0.098,-0.1097,-0.0876,-0.0844,-0.0814,-0.0929,-0.1124,-0.1125,-0.1516,-0.152,-0.1523]}],[{"header":{"parameterUnit":"m.s-1","parameterCategory":2,"la1":30.2991,"la2":30.254,"lo1":-89.0895,"lo2":-89.0444,"dy":0.0017,"dx":0.0017,"nx":28,"ny":28,"refTime":"2024-05-24T21:00:00:Z","depth":"2","parameterNumber":2,"parameterNumberName":"U-component_of_CURRENTS"},"data":[0,0,0,0,0,0,0,0,0,0,0,0,0,0,0,0,0,0,0,0,0,0,0,0,0,0,0,0,0,0,0,0,0,0,0,0,0,0,0,0,0,0,0,0,0,0,0,0,0,0,0,0,0,0,0,0,0,0,0.158,0.158,0,0.1614,0.1614,0.1614,0.162,0.162,0.162,0.162,0.162,0.162,0.162,0,0,0,0,0,0,0,0,0,0,0,0,0,0.1508,0.1509,0.158,0.158,0.1581,0.1614,0.1614,0.1614,0.162,0.162,0.162,0.162,0.162,0.162,0.162,0,0,0,0,0,0,0,0,0,0,0,0,0,0.1538,0.151,0.158,0.1589,0.1591,0.1614,0.1614,0.1614,0.162,0.162,0.162,0.162,0.162,0.162,0.162,0.1624,0,0,0.162,0.162,0,0,0,0,0,0,0,0,0.1537,0.1541,0.1587,0.1589,0.159,0.1614,0.1589,0.1616,0.162,0.1607,0.162,0.1619,0.1616,0.1617,0.1621,0.1624,0.1624,0.162,0.162,0.162,0.1621,0,0,0,0,0,0,0,0.1535,0.1539,0.1591,0.1588,0.159,0.1588,0.1592,0.1594,0.161,0.1608,0.1609,0.1616,0.1616,0.1621,0.1621,0.1624,0.162,0.162,0.1621,0.1621,0.1633,0.1634,0,0,0,0,0,0,0.1536,0.1538,0.159,0.1592,0.1565,0.159,0.1594,0.1605,0.161,0.1612,0.1616,0.1616,0.1621,0.1621,0.1621,0.1634,0.162,0.1621,0.1621,0.1633,0.1634,0.1634,0,0,0,0,0,0,0.1534,0.154,0.1589,0.1567,0.1573,0.1591,0.1603,0.1606,0.1615,0.1617,0.1618,0.1624,0.162,0.1621,0.1627,0.1634,0.1621,0.1621,0.1633,0.1633,0.1634,0.1655,0,0,0,0,0,0,0.1532,0.1539,0.1548,0.1567,0.1575,0.161,0.1604,0.1607,0.162,0.1621,0.1624,0.1624,0.162,0.1626,0.1627,0.1634,0.1621,0.1633,0.1633,0.1634,0.1654,0.1656,0.1658,0,0,0,0,0,0.1529,0.1545,0.1548,0.1554,0.1586,0.1611,0.1614,0.1624,0.1621,0.1631,0.1629,0.1624,0.1629,0.1627,0.1627,0.1634,0.1632,0.1633,0.1634,0.1653,0.1656,0.1658,0,0,0,0,0,0,0.1518,0.1548,0.1551,0.1575,0.1594,0.1612,0.1625,0.1628,0.1635,0.1634,0.1629,0.1629,0.1637,0.1632,0.1629,0.1639,0.1629,0.163,0.1644,0.1647,0.1649,0.1656,0.1621,0,0,0,0,0,0.1519,0.154,0.1564,0.1583,0.1593,0.1608,0.1619,0.1627,0.1636,0.164,0.164,0.1639,0.1639,0.164,0.1642,0.1648,0.1704,0.1652,0.1654,0.1655,0.1661,0.1782,0.1797,0.1636,0.1636,0.1636,0,0,0.1519,0.154,0.155,0.1582,0.1596,0.1613,0.1614,0.1637,0.1646,0.1638,0.1648,0.1648,0.1643,0.165,0.1653,0.1647,0.1728,0.1656,0.1658,0.1662,0.1784,0.18,0.1815,0.1636,0.1636,0.1636,0,0,0.1532,0.1549,0.157,0.1586,0.1614,0.1623,0.163,0.1652,0.1657,0.1669,0.1662,0.1665,0.1669,0.1666,0.1664,0.1676,0.1737,0.1679,0.1694,0.1812,0.1827,0.1841,0.1931,0.1952,0.1678,0.1679,0.1679,0,0.1528,0.1558,0.1578,0.1599,0.1611,0.1627,0.1643,0.1654,0.1672,0.1681,0.1675,0.1695,0.1675,0.1694,0.1685,0.1681,0.1764,0.1686,0.1818,0.1833,0.1848,0.1936,0.196,0.168,0.168,0.1679,0.1679,0,0.1554,0.1575,0.1589,0.1618,0.1632,0.1653,0.1668,0.1683,0.1688,0.1701,0.1728,0.172,0.1744,0.1723,0.17,0.1775,0.1807,0.1813,0.1819,0.1866,0.1955,0.198,0.1681,0.1681,0.168,0.168,0,0,0.1552,0.1598,0.1602,0.1616,0.1643,0.166,0.1676,0.1701,0.1734,0.1742,0.18,0.1761,0.1787,0.1786,0.1778,0.1838,0.1977,0.1866,0.1872,0.1966,0.2253,0.2177,0.2197,0.2038,0.2043,0.2046,0.2276,0,0.1565,0.1602,0.162,0.1648,0.1666,0.1682,0.1699,0.1723,0.1756,0.182,0.1824,0.1876,0.1809,0.1846,0.1896,0.1973,0.2046,0.1915,0.2183,0.219,0.2128,0.2223,0.2028,0.2209,0.23,0.2304,0.2307,0,0.158,0.1605,0.1634,0.1668,0.1678,0.1695,0.1744,0.177,0.1846,0.1879,0.194,0.1985,0.2055,0.2014,0.218,0.212,0.2186,0.2229,0.2241,0.2179,0.216,0.2177,0.2251,0.2349,0.2345,0.2342,0.234,0,0.157,0.1611,0.1635,0.1646,0.1688,0.1703,0.1729,0.1786,0.1839,0.1954,0.2044,0.2125,0.2228,0.2316,0.239,0.233,0.2602,0.254,0.2527,0.2522,0.2408,0.2385,0.268,0.268,0.2679,0.2679,0.2678,0,0.1574,0.1592,0.1635,0.1649,0.168,0.1711,0.178,0.1809,0.1923,0.2022,0.2099,0.2223,0.2325,0.248,0.2498,0.2609,0.2712,0.2557,0.2591,0.2405,0.238,0.253,0.2509,0.2687,0.2685,0.2684,0.2682,0,0.156,0.1588,0.1616,0.1662,0.1678,0.1703,0.1803,0.1877,0.1976,0.2132,0.2192,0.2373,0.255,0.2639,0.2813,0.2771,0.2858,0.2868,0.2622,0.262,0.2665,0.2643,0.2874,0.2873,0.2873,0.2873,0.2872,0,0.1557,0.1572,0.1618,0.1649,0.1672,0.1733,0.1792,0.188,0.1972,0.2213,0.23,0.2533,0.2661,0.2882,0.286,0.2919,0.2933,0.276,0.2561,0.2682,0.2693,0.2671,0.265,0.2431,0.2427,0.2424,0.2421,0,0.1556,0.1572,0.1606,0.1662,0.1717,0.1783,0.1872,0.1936,0.2081,0.2217,0.2419,0.2551,0.2747,0.2724,0.2793,0.2771,0.2717,0.2692,0.2977,0.238,0.2275,0.2281,0.2274,0.2393,0.2396,0.2398,0.24,0.2401,0.1563,0.1584,0.1641,0.1689,0.1749,0.1814,0.1834,0.1949,0.2063,0.2176,0.2363,0.246,0.2548,0.2514,0.2495,0.2458,0.2588,0.2461,0.2468,0.2479,0.2355,0.2252,0.2343,0.2345,0.2347,0.2349,0.2351,0,0.1587,0.163,0.1675,0.1715,0.1745,0.18,0.188,0.1864,0.1935,0.2072,0.2163,0.2052,0.2094,0.2182,0.2089,0.2095,0.2034,0.2014,0.1923,0.1955,0.1982,0.1827,0.1679,0.1676,0.1674,0.1672,0,0,0.1614,0.1654,0.1671,0.1699,0.1732,0.1727,0.1744,0.1718,0.1766,0.1741,0.1767,0.1907,0.2111,0.1838,0.1839,0.176,0.1829,0.1691,0.2238,0.2164,0.2187,0.2261,0.2062,0,0,0,0,0]},{"header":{"parameterUnit":"m.s-1","parameterCategory":2,"la1":30.2991,"la2":30.254,"lo1":-89.0895,"lo2":-89.0444,"dy":0.0017,"dx":0.0017,"nx":28,"ny":28,"refTime":"2024-05-24T21:00:00:Z","depth":"2","parameterNumber":3,"parameterNumberName":"V-component_of_CURRENTS"},"data":[0,0,0,0,0,0,0,0,0,0,0,0,0,0,0,0,0,0,0,0,0,0,0,0,0,0,0,0,0,0,0,0,0,0,0,0,0,0,0,0,0,0,0,0,0,0,0,0,0,0,0,0,0,0,0,0,0,0,-0.0179,-0.018,0,-0.025,-0.0251,-0.0252,-0.0279,-0.0279,-0.0279,-0.0279,-0.0372,-0.0374,-0.0377,0,0,0,0,0,0,0,0,0,0,0,0,0,-0.0111,-0.0112,-0.0179,-0.018,-0.0181,-0.025,-0.0251,-0.0252,-0.028,-0.0279,-0.0279,-0.0279,-0.0371,-0.0374,-0.0377,0,0,0,0,0,0,0,0,0,0,0,0,0,-0.0158,-0.0113,-0.0179,-0.0202,-0.0205,-0.025,-0.0251,-0.0252,-0.028,-0.0279,-0.0279,-0.0278,-0.037,-0.0374,-0.0378,-0.0411,0,0,-0.039,-0.0392,0,0,0,0,0,0,0,0,-0.0155,-0.016,-0.0198,-0.0201,-0.0204,-0.0255,-0.0261,-0.0306,-0.028,-0.0252,-0.0279,-0.0278,-0.0334,-0.0341,-0.0356,-0.0415,-0.0419,-0.039,-0.0393,-0.0395,-0.0396,0,0,0,0,0,0,0,-0.0152,-0.0158,-0.0208,-0.0199,-0.0202,-0.0224,-0.023,-0.027,-0.0295,-0.0254,-0.0256,-0.0263,-0.0336,-0.0352,-0.0359,-0.042,-0.039,-0.0394,-0.0396,-0.0398,-0.0526,-0.0527,0,0,0,0,0,0,-0.014,-0.0155,-0.0206,-0.021,-0.0177,-0.0226,-0.0232,-0.0239,-0.0295,-0.0302,-0.0264,-0.0264,-0.0346,-0.0354,-0.0362,-0.0414,-0.0395,-0.0398,-0.0401,-0.0525,-0.0526,-0.0528,0,0,0,0,0,0,-0.0138,-0.0144,-0.0203,-0.0183,-0.0192,-0.0227,-0.0235,-0.0241,-0.0256,-0.0301,-0.0309,-0.0272,-0.0346,-0.0356,-0.0404,-0.0417,-0.04,-0.0404,-0.0524,-0.0526,-0.0527,-0.0512,0,0,0,0,0,0,-0.0136,-0.0143,-0.0145,-0.0182,-0.0193,-0.0231,-0.0236,-0.0243,-0.0261,-0.0263,-0.0312,-0.032,-0.0346,-0.0398,-0.0408,-0.0423,-0.0407,-0.0523,-0.0525,-0.0527,-0.0511,-0.0513,-0.0514,0,0,0,0,0,-0.0133,-0.0141,-0.0145,-0.0151,-0.0195,-0.0232,-0.0239,-0.0263,-0.0262,-0.0274,-0.0307,-0.0318,-0.0416,-0.0402,-0.0414,-0.043,-0.0522,-0.0524,-0.0526,-0.0511,-0.0513,-0.0514,0,0,0,0,0,0,-0.0115,-0.0146,-0.0151,-0.0167,-0.0196,-0.0236,-0.025,-0.0262,-0.0298,-0.0299,-0.0334,-0.0346,-0.0391,-0.0416,-0.0399,-0.0473,-0.047,-0.0474,-0.0454,-0.0456,-0.0457,-0.0415,-0.0411,0,0,0,0,0,-0.011,-0.0124,-0.0156,-0.017,-0.0183,-0.0214,-0.0231,-0.0247,-0.0282,-0.0297,-0.0331,-0.037,-0.0411,-0.0435,-0.0474,-0.0518,-0.0507,-0.0536,-0.0537,-0.0538,-0.0513,-0.0494,-0.049,-0.0535,-0.0535,-0.0535,0,0,-0.0107,-0.0126,-0.0133,-0.0167,-0.019,-0.0214,-0.0224,-0.0251,-0.0272,-0.0303,-0.0343,-0.0376,-0.0424,-0.0471,-0.0493,-0.0492,-0.0529,-0.0541,-0.0541,-0.0514,-0.0496,-0.0491,-0.0487,-0.0536,-0.0536,-0.0536,0,0,-0.0112,-0.0123,-0.0138,-0.0161,-0.0194,-0.0215,-0.022,-0.026,-0.0277,-0.032,-0.0347,-0.0381,-0.0451,-0.048,-0.0505,-0.0538,-0.0534,-0.056,-0.0535,-0.0519,-0.0514,-0.0509,-0.0518,-0.0514,-0.0563,-0.0563,-0.0562,0,-0.0106,-0.0126,-0.0149,-0.0171,-0.0184,-0.0213,-0.0228,-0.0259,-0.0309,-0.0311,-0.0331,-0.0397,-0.045,-0.0483,-0.0505,-0.0538,-0.053,-0.0525,-0.0516,-0.0511,-0.0507,-0.0516,-0.0512,-0.0562,-0.0562,-0.0562,-0.0562,0,-0.0127,-0.0139,-0.0151,-0.0182,-0.0202,-0.0221,-0.0257,-0.0274,-0.0293,-0.0311,-0.0338,-0.0398,-0.0419,-0.0463,-0.0502,-0.0504,-0.0512,-0.0516,-0.0502,-0.05,-0.0513,-0.0508,-0.0561,-0.0562,-0.0562,-0.0562,0,0,-0.0119,-0.0155,-0.0159,-0.0157,-0.0203,-0.0213,-0.0246,-0.0265,-0.0242,-0.0304,-0.027,-0.0377,-0.0371,-0.0398,-0.0443,-0.0453,-0.045,-0.0472,-0.0471,-0.0463,-0.0421,-0.0483,-0.0485,-0.0443,-0.0441,-0.044,-0.0452,0,-0.0125,-0.0144,-0.017,-0.018,-0.0184,-0.021,-0.0218,-0.0236,-0.0245,-0.022,-0.027,-0.0259,-0.0358,-0.0341,-0.0376,-0.0409,-0.0433,-0.0446,-0.0438,-0.0438,-0.0478,-0.0479,-0.0447,-0.0459,-0.0448,-0.0447,-0.0447,0,-0.0135,-0.014,-0.0145,-0.0137,-0.0139,-0.0144,-0.0119,-0.0131,-0.0117,-0.0113,-0.0117,-0.0127,-0.0158,-0.0217,-0.029,-0.0288,-0.0353,-0.0397,-0.0398,-0.0446,-0.0491,-0.0455,-0.0451,-0.044,-0.044,-0.0441,-0.0441,0,-0.0095,-0.0118,-0.0107,-0.0114,-0.0119,-0.0104,-0.0097,-0.0085,-0.0049,-0.001,0.0057,-0.0002,0.003,-0.0066,-0.0199,-0.0217,-0.0265,-0.0294,-0.042,-0.0426,-0.0391,-0.0397,-0.0331,-0.0331,-0.0331,-0.0331,-0.0331,0,-0.008,-0.0068,-0.0076,-0.0066,-0.0018,-0.0039,0.0042,0.0035,0.0096,0.0178,0.0141,0.02,0.0079,0.0027,-0.0127,-0.0269,-0.0213,-0.0405,-0.0424,-0.0394,-0.0399,-0.0369,-0.0374,-0.0331,-0.0331,-0.0331,-0.0331,0,-0.0027,-0.0046,-0.0019,-0.0008,0.0005,0.0051,0.0135,0.0213,0.0247,0.0367,0.04,0.0387,0.0296,0.0132,-0.0009,-0.0148,-0.0294,-0.0365,-0.0343,-0.0361,-0.0485,-0.0488,-0.0476,-0.0478,-0.0479,-0.0481,-0.0482,0,-0.0,0.0016,0.0043,0.0084,0.0098,0.0174,0.0251,0.0286,0.0359,0.0468,0.0526,0.0505,0.0463,0.0214,-0.0044,-0.0305,-0.0343,-0.0415,-0.0458,-0.0474,-0.0495,-0.0496,-0.0497,-0.0415,-0.0415,-0.0416,-0.0416,0,0.0067,0.0077,0.0105,0.0178,0.0253,0.0349,0.0435,0.0491,0.0558,0.063,0.0685,0.0676,0.0481,0.0232,-0.0102,-0.0283,-0.0376,-0.0435,-0.0412,-0.04,-0.0422,-0.0441,-0.0443,-0.042,-0.042,-0.042,-0.0419,-0.0419,0.0123,0.0166,0.0201,0.0269,0.0376,0.0472,0.0511,0.0598,0.0666,0.0736,0.0739,0.0743,0.0552,0.0102,-0.017,-0.0435,-0.0451,-0.0517,-0.0513,-0.0508,-0.0516,-0.0542,-0.0564,-0.0565,-0.0565,-0.0565,-0.0565,0,0.0173,0.0219,0.0291,0.035,0.0443,0.0497,0.0603,0.0628,0.0658,0.0795,0.0801,0.0635,0.0378,0.0149,-0.0241,-0.0484,-0.0483,-0.0553,-0.0481,-0.0477,-0.0473,-0.0476,-0.0516,-0.0516,-0.0516,-0.0516,0,0,0.0198,0.0244,0.0264,0.0366,0.0431,0.0515,0.0546,0.0616,0.0705,0.0773,0.0819,0.0783,0.0527,0.0258,-0.0078,-0.0279,-0.0318,-0.0327,-0.0346,-0.0219,-0.0211,-0.044,-0.044,0,0,0,0,0]}],[{"header":{"parameterUnit":"m.s-1","parameterCategory":2,"la1":30.2991,"la2":30.254,"lo1":-89.0895,"lo2":-89.0444,"dy":0.0017,"dx":0.0017,"nx":28,"ny":28,"refTime":"2024-05-24T21:00:00:Z","depth":"4","parameterNumber":2,"parameterNumberName":"U-component_of_CURRENTS"},"data":[0,0,0,0,0,0,0,0,0,0,0,0,0,0,0,0,0,0,0,0,0,0,0,0,0,0,0,0,0,0,0,0,0,0,0,0,0,0,0,0,0,0,0,0,0,0,0,0,0,0,0,0,0,0,0,0,0,0,0.0727,0.0728,0,0.0795,0.0796,0.0796,0.0868,0.0868,0.0869,0.087,0.0945,0.0946,0.0947,0,0,0,0,0,0,0,0,0,0,0,0,0,0.0682,0.0682,0.0727,0.0728,0.0728,0.0795,0.0796,0.0797,0.0867,0.0869,0.087,0.0871,0.0944,0.0946,0.0947,0,0,0,0,0,0,0,0,0,0,0,0,0,0.0721,0.0682,0.0727,0.0771,0.0776,0.0794,0.0796,0.0797,0.0867,0.0869,0.087,0.0871,0.0944,0.0945,0.0947,0.0929,0,0,0.0952,0.0953,0,0,0,0,0,0,0,0,0.0719,0.0723,0.0764,0.0768,0.0774,0.0824,0.0807,0.0841,0.0867,0.0833,0.087,0.0872,0.0903,0.0908,0.0919,0.0932,0.0935,0.0952,0.0953,0.0954,0.0954,0,0,0,0,0,0,0,0.0716,0.072,0.0754,0.0765,0.0771,0.0796,0.0803,0.0814,0.086,0.0836,0.0841,0.0848,0.0906,0.0917,0.0921,0.0936,0.0952,0.0954,0.0955,0.0955,0.1042,0.1043,0,0,0,0,0,0,0.0704,0.0717,0.0752,0.0756,0.0749,0.0796,0.0803,0.0807,0.086,0.0869,0.0846,0.0851,0.0913,0.0919,0.0924,0.1001,0.0954,0.0955,0.0956,0.104,0.1042,0.1043,0,0,0,0,0,0,0.0702,0.0706,0.0749,0.0738,0.0746,0.0795,0.0798,0.0807,0.0843,0.0867,0.0877,0.0876,0.0915,0.0921,0.0942,0.1001,0.0956,0.0958,0.1039,0.1041,0.1043,0.1094,0,0,0,0,0,0,0.0701,0.0705,0.0713,0.0737,0.0746,0.0773,0.0797,0.0807,0.0843,0.085,0.0895,0.0902,0.0916,0.0939,0.0943,0.1002,0.0959,0.1037,0.104,0.1042,0.109,0.1097,0.1103,0,0,0,0,0,0.0699,0.0701,0.0713,0.0718,0.0752,0.0773,0.0781,0.082,0.0843,0.0859,0.0881,0.0902,0.096,0.094,0.0945,0.1006,0.1036,0.1039,0.1042,0.1087,0.1096,0.1103,0,0,0,0,0,0,0.0684,0.0708,0.0723,0.0732,0.0757,0.0786,0.0805,0.0829,0.086,0.0874,0.0896,0.0904,0.0956,0.0959,0.0937,0.1038,0.101,0.1014,0.1044,0.1051,0.1058,0.1073,0.096,0,0,0,0,0,0.0682,0.069,0.0718,0.0725,0.0741,0.0775,0.0794,0.0822,0.0847,0.0865,0.0895,0.093,0.0967,0.0989,0.1015,0.1049,0.1048,0.1098,0.1105,0.111,0.1126,0.1152,0.1163,0.1053,0.1053,0.1053,0,0,0.0676,0.0691,0.0696,0.0723,0.0747,0.0773,0.0791,0.0825,0.0853,0.0864,0.0915,0.0949,0.0979,0.1031,0.1057,0.1044,0.1137,0.1114,0.1118,0.1132,0.1157,0.1167,0.1177,0.1055,0.1055,0.1054,0,0,0.0665,0.0685,0.0693,0.072,0.0761,0.0781,0.0794,0.0839,0.087,0.0913,0.094,0.0994,0.1046,0.1081,0.1105,0.1155,0.1168,0.1185,0.1234,0.1259,0.1268,0.1277,0.1273,0.128,0.119,0.119,0.119,0,0.0661,0.0673,0.0699,0.0724,0.0748,0.0786,0.0811,0.0843,0.0891,0.0924,0.094,0.1047,0.1074,0.1141,0.1179,0.1173,0.1181,0.1202,0.1268,0.1276,0.1283,0.1278,0.1285,0.1193,0.1193,0.1192,0.1192,0,0.0663,0.0683,0.0692,0.0734,0.0765,0.0789,0.0837,0.088,0.093,0.0973,0.106,0.1098,0.1175,0.1199,0.1215,0.1297,0.1282,0.1269,0.1247,0.1297,0.1288,0.1295,0.1197,0.1196,0.1195,0.1194,0,0,0.062,0.0681,0.0687,0.0716,0.0775,0.0802,0.0854,0.0914,0.0969,0.1039,0.1113,0.12,0.1255,0.1285,0.1315,0.1346,0.1409,0.135,0.135,0.1345,0.1457,0.1418,0.1421,0.1417,0.1419,0.142,0.1423,0,0.0613,0.0656,0.0689,0.0737,0.0766,0.0826,0.0876,0.0946,0.1011,0.1091,0.1162,0.125,0.1275,0.134,0.1378,0.1411,0.1434,0.1409,0.1412,0.1411,0.137,0.1431,0.1426,0.1428,0.1429,0.1431,0.1431,0,0.0603,0.0636,0.0682,0.0757,0.0778,0.0821,0.0922,0.0972,0.1084,0.1151,0.1252,0.1313,0.1411,0.141,0.1488,0.1479,0.1488,0.1487,0.1487,0.1443,0.1387,0.1372,0.1444,0.1443,0.1442,0.1441,0.144,0,0.0563,0.0628,0.0665,0.0693,0.0787,0.0835,0.0893,0.1001,0.107,0.1202,0.128,0.1381,0.146,0.1494,0.155,0.1531,0.1602,0.1559,0.1512,0.1507,0.1515,0.1506,0.1593,0.1593,0.1593,0.1593,0.1593,0,0.0535,0.0566,0.0661,0.0686,0.076,0.0834,0.0929,0.1005,0.1131,0.1219,0.1323,0.1404,0.1494,0.1554,0.1568,0.1584,0.1621,0.154,0.1521,0.1533,0.1527,0.1519,0.151,0.1593,0.1593,0.1593,0.1593,0,0.0484,0.0539,0.0592,0.0698,0.0744,0.0803,0.0955,0.1021,0.1147,0.1261,0.1319,0.1454,0.1539,0.1592,0.1644,0.1608,0.1616,0.16,0.1618,0.1596,0.1485,0.1479,0.153,0.1529,0.1529,0.1528,0.1527,0,0.0462,0.0481,0.0596,0.065,0.0704,0.0814,0.0889,0.1026,0.1092,0.1279,0.1317,0.1457,0.1536,0.1567,0.1626,0.1638,0.162,0.1595,0.1541,0.1511,0.1486,0.1482,0.1477,0.1526,0.1526,0.1526,0.1525,0,0.0416,0.0458,0.0512,0.0613,0.0697,0.0788,0.0897,0.0944,0.1095,0.1218,0.132,0.1395,0.1479,0.1534,0.1573,0.1571,0.1601,0.1585,0.1585,0.1534,0.1505,0.1481,0.1478,0.1522,0.1523,0.1523,0.1523,0,0.0389,0.0414,0.0486,0.0576,0.0666,0.0726,0.0801,0.0897,0.0987,0.1178,0.121,0.1351,0.1466,0.15,0.1533,0.155,0.1511,0.1442,0.1448,0.1452,0.1433,0.1386,0.1369,0,0,0,0,0,0.0365,0.0388,0.0453,0.0541,0.0617,0.0671,0.0787,0.086,0.0994,0.1043,0.1133,0.1219,0.1317,0.1384,0.1385,0.1478,0.1496,0.147,0.1412,0.1506,0.1509,0.1498,0,0,0,0,0,0,0.0351,0.0397,0.0424,0.0479,0.0531,0.0607,0.0669,0.0769,0.0806,0.0956,0.1014,0.1146,0.1247,0.1307,0.1361,0.1382,0.1322,0.1564,0.1561,0.1504,0.1507,0.151,0.1499,0,0,0,0,0]},{"header":{"parameterUnit":"m.s-1","parameterCategory":2,"la1":30.2991,"la2":30.254,"lo1":-89.0895,"lo2":-89.0444,"dy":0.0017,"dx":0.0017,"nx":28,"ny":28,"refTime":"2024-05-24T21:00:00:Z","depth":"4","parameterNumber":3,"parameterNumberName":"V-component_of_CURRENTS"},"data":[0,0,0,0,0,0,0,0,0,0,0,0,0,0,0,0,0,0,0,0,0,0,0,0,0,0,0,0,0,0,0,0,0,0,0,0,0,0,0,0,0,0,0,0,0,0,0,0,0,0,0,0,0,0,0,0,0,0,0.0058,0.0058,0,0.0066,0.0066,0.0066,0.0007,0.0005,0.0004,0.0002,-0.0022,-0.0022,-0.0021,0,0,0,0,0,0,0,0,0,0,0,0,0,-0.0019,-0.0018,0.0058,0.0058,0.0059,0.0066,0.0066,0.0066,0.0007,0.0005,0.0003,0.0002,-0.0023,-0.0022,-0.0021,0,0,0,0,0,0,0,0,0,0,0,0,0,0.0003,-0.0017,0.0058,0.0031,0.0029,0.0066,0.0066,0.0066,0.0007,0.0005,0.0003,0.0001,-0.0023,-0.0022,-0.0021,0.0033,0,0,-0.0017,-0.0017,0,0,0,0,0,0,0,0,0.0002,0.0006,0.0035,0.0033,0.003,0.0034,0.0029,0.0053,0.0008,0.0014,0.0002,-0.0,-0.0004,-0.0005,0.0001,0.0032,0.0031,-0.0017,-0.0016,-0.0016,-0.0015,0,0,0,0,0,0,0,0.0,0.0005,0.006,0.0035,0.0033,0.0014,0.0015,0.0034,0.0017,0.0014,0.001,0.0013,-0.0006,-0.0,-0.0,0.003,-0.0017,-0.0016,-0.0015,-0.0015,0.0061,0.0062,0,0,0,0,0,0,0.0005,0.0004,0.006,0.006,0.0011,0.0018,0.0018,0.0034,0.0017,0.0013,0.0015,0.001,-0.0001,-0.0002,-0.0001,0.0036,-0.0016,-0.0015,-0.0014,0.006,0.0061,0.0063,0,0,0,0,0,0,0.0004,0.0011,0.0059,0.0032,0.0037,0.0022,0.004,0.0036,0.0031,0.0019,0.0013,0.0013,-0.0003,-0.0003,0.0026,0.0036,-0.0014,-0.0013,0.0058,0.006,0.0062,0.0128,0,0,0,0,0,0,0.0002,0.0011,0.0023,0.0033,0.0039,0.0088,0.0042,0.0037,0.0037,0.0031,0.0016,0.0011,-0.0005,0.0025,0.0027,0.0036,-0.0012,0.0056,0.0059,0.0061,0.0124,0.0132,0.0139,0,0,0,0,0,-0.0001,0.0041,0.0024,0.003,0.0057,0.009,0.0092,0.0071,0.004,0.0054,0.0046,0.0011,0.004,0.0028,0.003,0.004,0.0055,0.0058,0.0061,0.0121,0.013,0.0138,0,0,0,0,0,0,0.0021,0.004,0.002,0.0065,0.0073,0.008,0.0096,0.0077,0.0083,0.0071,0.0046,0.0045,0.0067,0.0055,0.0041,0.0068,0.0035,0.0039,0.008,0.0089,0.0096,0.006,-0.0011,0,0,0,0,0,0.003,0.0061,0.0068,0.0102,0.0108,0.0098,0.0106,0.0092,0.0099,0.0097,0.0087,0.0078,0.0087,0.0088,0.0094,0.0125,0.006,0.0127,0.0134,0.014,0.0113,0.0025,0.002,0.0072,0.0072,0.0072,0,0,0.0051,0.0062,0.008,0.0107,0.0109,0.0137,0.0097,0.0119,0.0137,0.0098,0.0122,0.011,0.0103,0.0129,0.0137,0.0117,0.01,0.0144,0.0149,0.0118,0.0027,0.0021,0.0016,0.0074,0.0074,0.0074,0,0,0.0109,0.0113,0.0153,0.0163,0.0172,0.0171,0.0177,0.0182,0.0176,0.0206,0.0176,0.0169,0.0191,0.0177,0.0175,0.0229,0.0144,0.023,0.0235,0.0151,0.0145,0.0138,0.0079,0.0067,0.023,0.023,0.023,0,0.0126,0.017,0.017,0.0204,0.0213,0.0188,0.0221,0.0231,0.0242,0.023,0.022,0.0203,0.0208,0.0207,0.0226,0.0241,0.0179,0.0205,0.0157,0.0149,0.0141,0.0081,0.0066,0.0234,0.0233,0.0233,0.0233,0,0.0206,0.0233,0.026,0.0287,0.0303,0.0331,0.0334,0.0339,0.032,0.0304,0.029,0.0284,0.0249,0.0268,0.0269,0.0224,0.0195,0.0177,0.0127,0.0139,0.0077,0.006,0.0239,0.0238,0.0236,0.0236,0,0,0.0254,0.0304,0.0309,0.0314,0.034,0.0355,0.0391,0.0393,0.037,0.037,0.0326,0.0353,0.029,0.0282,0.0266,0.021,0.0134,0.017,0.0164,0.0098,-0.0054,-0.0022,-0.0037,0.0093,0.0089,0.0087,-0.0064,0,0.0303,0.0367,0.0386,0.0429,0.0451,0.0438,0.0462,0.0454,0.0427,0.0382,0.0343,0.0303,0.0315,0.0273,0.0224,0.0145,0.0087,0.0176,-0.0046,-0.0052,-0.0037,-0.0057,0.0077,-0.0077,-0.0081,-0.0084,-0.0086,0,0.0358,0.0388,0.0444,0.0458,0.0465,0.0488,0.0463,0.0481,0.0425,0.039,0.0325,0.0268,0.02,0.0192,0.0047,0.0094,0.0018,-0.0037,-0.0045,-0.0062,-0.0053,-0.0098,-0.0117,-0.0115,-0.0112,-0.011,-0.0108,0,0.0355,0.0417,0.0451,0.0464,0.0491,0.0497,0.0502,0.047,0.0453,0.0365,0.0308,0.0214,0.0144,0.0032,-0.0059,-0.0036,-0.0238,-0.0222,-0.0261,-0.0259,-0.0273,-0.0265,-0.0352,-0.0352,-0.0351,-0.0351,-0.035,0,0.038,0.0402,0.0447,0.0461,0.0471,0.0492,0.0475,0.0458,0.0406,0.0367,0.0292,0.0223,0.009,-0.0027,-0.0107,-0.0235,-0.0284,-0.0283,-0.0309,-0.0233,-0.0219,-0.0284,-0.0274,-0.0356,-0.0355,-0.0354,-0.0353,0,0.0359,0.04,0.0427,0.0462,0.0469,0.0468,0.0467,0.044,0.0403,0.0339,0.0302,0.0189,0.0051,-0.0068,-0.0253,-0.0292,-0.0419,-0.0451,-0.036,-0.0374,-0.0371,-0.0355,-0.0526,-0.0526,-0.0526,-0.0527,-0.0527,0,0.035,0.0367,0.041,0.041,0.0423,0.0431,0.0426,0.0425,0.0404,0.033,0.0291,0.0148,0.0071,-0.0158,-0.0281,-0.0456,-0.0456,-0.0527,-0.0446,-0.0388,-0.0396,-0.038,-0.0364,-0.0528,-0.0528,-0.0528,-0.0528,0,0.0309,0.0328,0.0345,0.0351,0.0357,0.0378,0.0385,0.0378,0.0376,0.034,0.0271,0.0158,0.0007,-0.0146,-0.029,-0.0404,-0.0487,-0.0531,-0.053,-0.0454,-0.0392,-0.0396,-0.038,-0.0529,-0.0529,-0.0529,-0.0529,0,0.0253,0.025,0.0266,0.0278,0.029,0.0322,0.0346,0.0346,0.0342,0.0307,0.0281,0.0141,0.0056,-0.0123,-0.0255,-0.0369,-0.0376,-0.039,-0.0396,-0.0396,-0.0295,-0.0193,-0.0314,0,0,0,0,0,0.0183,0.0179,0.0183,0.0212,0.0238,0.0271,0.0305,0.0336,0.036,0.0323,0.0316,0.0193,0.0011,-0.0085,-0.0192,-0.0271,-0.0414,-0.04,-0.0436,-0.0536,-0.0535,-0.0432,0,0,0,0,0,0,0.0122,0.0119,0.0157,0.0165,0.0193,0.0234,0.0281,0.0311,0.0308,0.0312,0.0215,0.018,-0.0008,0.0075,-0.0191,-0.023,-0.0262,-0.0488,-0.049,-0.0537,-0.0536,-0.0534,-0.0429,0,0,0,0,0]}]]